Tracking 19476 objects as of 17-Jan-2019
HD Live streaming from Space Station
objects crossing your sky now

COSMOS 1805

Track COSMOS 1805 now!
10-day predictions
COSMOS 1805 is classified as:


NORAD ID: 17191
Int'l Code: 1986-097A
Perigee: 533.9 km
Apogee: 538.7 km
Inclination: 82.5 °
Period: 95.2 minutes
Semi major axis: 6907 km
RCS: 9.467 m2 (large)
Launch date: December 10, 1986
Source: Commonwealth of Independent States (former USSR) (CIS)
Launch site: PLESETSK MISSILE AND SPACE COMPLEX (PKMTR)
aabbcc
Your satellite tracking list
Your tracking list is empty




NASA's NSSDC Master Catalog

Two Line Element Set (TLE):
1 17191U 86097A   19016.55452697 -.00000108  00000-0 -80269-5 0  9990
2 17191  82.4734 179.5919 0003477 232.6496 127.4419 15.12299279751045
Source of the keplerian elements: AFSPC